Location: Home
(42.5358°N, 72.7383°W)
Time: 00:38:30
(UTC-05:00)

Vanguard 1 - Pass Details

Date: 03 December 2021
Orbit: 652 x 3830 km, 34.2° (Epoch: 21 January)

Event Time Altitude Azimuth Distance (km) Brightness Sun altitude
Rises 21:29:17 0° 205° (SSW) 6,597 14.3 -55.9°
Reaches altitude 10° 21:33:52 10° 196° (SSW) 5,963 13.9 -56.7°
Enters shadow 21:34:44 12° 195° (SSW) 5,856 13.8 -56.8°
Maximum altitude 21:50:58 35° 139° (SE) 5,014 - -59.4°
Drops below altitude 10° 22:10:06 10° 84° (E) 6,721 - -62.2°
Sets 22:15:35 0° 77° (ENE) 7,501 - -63.0°
